Regional Weather Roundup
Issued by NWS

Home | Current Version | Previous Version | Graphics & Text | Print | Product List | Glossary Off
Versions: 1 2 3 4 5 6 7 8 9 10 11 12 13 14 15 16 17 18 19 20 21 22 23 24 25 26 27 28 29 30 31 32 33 34 35 36 37 38 39 40 41 42 43 44 45 46 47 48 49 50

000
ASUS43 KLSX 010359
RWRMO

WEATHER SUMMARY FOR MISSOURI
NATIONAL WEATHER SERVICE SPRINGFIELD MO
1100 PM CDT TUE JUN 30 2015

NOTE: "FAIR" INDICATES FEW OR NO CLOUDS BELOW 12,000 FEET WITH NO
       SIGNIFICANT WEATHER AND/OR OBSTRUCTIONS TO VISIBILITY.
       CURRENT SKY AND/OR WEATHER CONDITIONS ARE NOT AVAILABLE FOR
       CHILLICOTHE AND FARMINGTON.

MOZ001>031-035>038-043-044-053-054-010500-
...NORTHERN AND WESTERN MISSOURI...

CITY           SKY/WX    TMP DP  RH WIND       PRES   REMARKS
KANSAS CTY INT MOCLDY    78  69  73 E10       29.91R
KANSAS C DTWN  PTCLDY    79  68  69 E7        29.88R
LEE`S SUMMIT   PTCLDY    78  65  63 SE3       29.91R
ST JOSEPH      LGT RAIN  76  68  76 E7        29.91R
CHILLICOTHE      N/A     73  71  93 CALM      29.93R
KIRKSVILLE     CLOUDY    70  68  93 CALM      29.92R FOG

$$
MOZ066>068-077>081-088>096-101>105-010500-
...SOUTHWEST MISSOURI...

CITY           SKY/WX    TMP DP  RH WIND       PRES   REMARKS
SPRINGFIELD    CLEAR     76  69  79 S8        29.96R
JOPLIN         CLOUDY    80  71  74 S10       29.93R

$$
MOZ032>034-039>042-045>050-055>058-069>072-010500-
...CENTRAL MISSOURI...

CITY           SKY/WX    TMP DP  RH WIND       PRES   REMARKS
COLUMBIA       MOCLDY    73  70  90 SW3       29.92R
JEFFERSON CITY CLOUDY    76  71  85 CALM      29.91R
ROLLA          MOCLDY    72  70  93 SW7       29.93R
SEDALIA        PTCLDY    74  70  87 S6        29.93R
OSAGE BEACH    PTCLDY    73  70  88 CALM      29.94R

$$
MOZ051-052-059>065-010500-
...EAST CENTRAL MISSOURI...

CITY           SKY/WX    TMP DP  RH WIND       PRES   REMARKS
ST LOUIS INTL  MOCLDY    77  67  71 CALM      29.91R
SPIRIT OF STL  CLOUDY    73  71  93 W3        29.90R
ST CHARLES     MOCLDY    74  71  91 CALM      29.89R

$$
MOZ072>076-082>087-097>100-106>115-010500-
...SOUTH CENTRAL AND SOUTHEAST MISSOURI...

CITY           SKY/WX    TMP DP  RH WIND       PRES   REMARKS
CAPE GIRARDEAU PTCLDY    74  70  87 CALM      29.92R
FARMINGTON     CLOUDY    72  70  94 CALM      29.98S
WEST PLAINS    MOCLDY    71  67  87 CALM      29.99R

$$



USA.gov is the U.S. government's official web portal to all federal, state and local government web resources and services.